Location: Wellington
(41.3000°S, 174.7830°E)
Time: 08:53:23
(UTC+13:00)

ISS - Pass Details

Date: 29 January 2019
Orbit: 411 x 421 km, 51.6° (Epoch: 21 October)

Event Time Altitude Azimuth Distance (km) Brightness Sun altitude
Exits shadow 04:47:21 20° 8° (N) 1,043 -2.1 -15.6°
Maximum altitude 04:48:41 26° 45° (NE) 870 -2.1 -15.4°
Drops below altitude 10° 04:51:35 10° 104° (ESE) 1,511 0.1 -15.0°
Sets 04:53:53 0° 116° (ESE) 2,379 1.7 -14.7°
